Showing default

OPS 4947 (TRANSIT 17), 2965

Orbit data source: Space-Track

OPS 4947 (TRANSIT 17), 2965 is a payload satellite owned by USN NAVAIR (US) in LEO that was launched on Mon, 25 Sep 1967 UTC via an SCOUT A launch vehicle from the Air Force Western Test Range (AFWTR). Payloads include a variety of satellites, spacecraft, and rockets equipped with specific instruments for various scientific and technological missions. These include communications satellites like Starlink; space stations such as the ISS; scientific satellites like the Hubble; Earth observation satellites from companies like Planet Labs, Umbra, and HawkEye 360; GPS; miniature CubeSats for education and research; and military/defense satellites.

Loading next visibility...
OPS 4947 (TRANSIT 17) details
Identifier
2965, 1967-092A
Orbit
LEO
Last TLE update15 hours ago
Origin
Flag of USUSN NAVAIR (US)
ManufacturerAPL
MissionDefense Navigation
Bus & MotorTRANSIT 5, Unknown motor
Mass~50 kg wet, ~50 kg dry
Launch date (UTC)
1967-09-25 (57 years ago)
Launch vehicle
SCOUT A
Launch site
Air Force Western Test Range (AFWTR)
Object type
Payload
Rocket body
Debris
Shape & HBROct Cyl + 4 Pan + 1 Rod, Unknown HBR
Radar Cross Section7.565 m², Large (>1 m²)

Expand to show TLE details & history

TLE from 15 hours ago
0 OPS 4947 (TRANSIT 17)
1 02965U 67092A   24355.89091425  .00000202  00000-0  28196-3 0  9996
2 02965  89.2367  51.8376 0047662 189.9853 344.4237 13.53336146822708
Epoch: 2024-12-20T21:22Z
Definitive object data (Epoch: 2024-12-20T21:22:54.991Z)
Latitude5.65658°
Longitude-178.91667°
Altitude1,028.267 km
Speed7.355 km/s
True Right ascension15h 27m 02s
True Declination5° 37' 27"
Sunlit
Object was in daylight at TLE epoch
Visualization TLE readout
Latitude71.10289°
Longitude3.32772°
Altitude1,088.375 km
Speed7.306 km/s
Apparent Right ascension01h 03m 40s
Apparent Declination24° 19' 20"
Sunlit
Object is in full shadow
Visualization observer readout
Local Sidereal Time11:52:33
Azimuth342.318° N
Elevation-23.657°
Doppler factor1
Orbital elements
Apogee altitude1,092.493 km
Perigee altitude1,021.618 km
Semi-major axis7,435.193 km
Eccentricity0.0047662
Inclination89.2367°
RAAN51.8376°
Arg. of periapsis189.9853°
True anomaly344.2762°
Mean anomaly344.4237°
Eccentric anomaly344.35003°
Mean motion3.38536 °/min
BSTAR0.00028196
Orbital period106.34 mins
Loading maneuver chart data...
Loading historical data...
Loading historical data...
Loading historical data...
Loading historical data...
Loading historical data...
Loading historical data...
Loading historical data...

OPS 4947 (TRANSIT 17) Visibility forecast

Observer location: undefined°, undefined

Span
Click to sort rows by Start time (UTC) header in descending order
Start Az.
Max El. time (UTC)
Max El. Az.
Max El.
End time (UTC)
End Az.
8 mins2024-12-21 14:52:41.871Z33.668° NE2024-12-21 14:56:41.871Z72.701° E18.627°2024-12-21 15:00:41.871Z115.982° SE
11 mins2024-12-21 16:38:41.871Z352.002° N2024-12-21 16:43:41.871Z286.656° WNW41.291°2024-12-21 16:49:41.871Z198.113° SSW
6 mins2024-12-22 02:51:41.871Z97.627° ESE2024-12-22 02:53:41.871Z76.752° E17.597°2024-12-22 02:57:41.871Z36.938° NE
11 mins2024-12-22 04:34:41.871Z188.711° SSW2024-12-22 04:39:41.871Z274.982° WNW43.444°2024-12-22 04:45:41.871Z353.66° N
|